Time,TemperatureF,DewpointF,PressureIn,WindDirection,WindDirectionDegrees,WindSpeedMPH,WindSpeedGustMPH,Humidity,HourlyPrecipIn,Conditions,Clouds,dailyrainin,SolarRadiationWatts/m^2,SoftwareType,DateUTC
2013-09-06 00:01:00,48.0,48.0,-100.00,NE,50,0.0,5.0,100,0.00,,,0.12,0.000000,,2013-09-06 07:01:00,
2013-09-06 00:42:00,48.0,48.0,-100.00,East,79,0.0,5.0,100,0.00,,,0.12,0.000000,,2013-09-06 07:42:00,
2013-09-06 00:52:00,48.0,48.0,-100.00,East,79,0.0,5.0,100,0.00,,,0.12,0.000000,,2013-09-06 07:52:00,
2013-09-06 01:02:00,48.0,48.0,-100.00,East,79,0.0,5.0,100,0.00,,,0.12,0.000000,,2013-09-06 08:02:00,
2013-09-06 01:42:00,48.0,48.0,-100.00,ENE,64,0.0,7.0,100,0.00,,,0.12,0.000000,,2013-09-06 08:42:00,
2013-09-06 01:52:00,48.0,48.0,-100.00,ENE,64,0.0,7.0,100,0.00,,,0.12,0.000000,,2013-09-06 08:52:00,
2013-09-06 02:01:00,48.0,48.0,-100.00,ENE,64,0.0,7.0,100,0.00,,,0.12,0.000000,,2013-09-06 09:01:00,
2013-09-06 02:43:00,47.0,47.0,-100.00,WNW,300,0.0,6.0,100,0.00,,,0.12,0.000000,,2013-09-06 09:43:00,
2013-09-06 02:53:00,47.0,47.0,-100.00,WNW,300,0.0,6.0,100,0.00,,,0.12,0.000000,,2013-09-06 09:53:00,
2013-09-06 03:03:00,47.0,47.0,-100.00,WNW,300,0.0,6.0,100,0.00,,,0.12,0.000000,,2013-09-06 10:03:00,
2013-09-06 03:43:00,49.0,49.0,-100.00,NE,46,1.0,6.0,100,0.01,,,0.13,0.000000,,2013-09-06 10:43:00,
2013-09-06 03:53:00,49.0,49.0,-100.00,NE,46,1.0,6.0,100,0.01,,,0.13,0.000000,,2013-09-06 10:53:00,
2013-09-06 04:02:00,49.0,49.0,-100.00,NE,46,1.0,6.0,100,0.01,,,0.13,0.000000,,2013-09-06 11:02:00,
2013-09-06 04:42:00,51.0,51.0,-100.00,NE,42,2.0,12.0,100,0.04,,,0.17,0.000000,,2013-09-06 11:42:00,
2013-09-06 04:52:00,51.0,51.0,-100.00,NE,42,2.0,12.0,100,0.04,,,0.17,0.000000,,2013-09-06 11:52:00,
2013-09-06 05:02:00,51.0,51.0,-100.00,NE,42,2.0,12.0,100,0.04,,,0.17,0.000000,,2013-09-06 12:02:00,
2013-09-06 05:42:00,50.0,50.0,-100.00,West,278,0.0,9.0,100,0.06,,,0.23,0.000000,,2013-09-06 12:42:00,
2013-09-06 05:52:00,50.0,50.0,-100.00,West,278,0.0,9.0,100,0.06,,,0.23,0.000000,,2013-09-06 12:52:00,
2013-09-06 06:02:00,50.0,50.0,-100.00,West,278,0.0,9.0,100,0.06,,,0.23,0.000000,,2013-09-06 13:02:00,
2013-09-06 06:42:00,50.0,50.0,-100.00,SW,227,0.0,4.0,100,0.06,,,0.29,0.000000,,2013-09-06 13:42:00,
2013-09-06 06:52:00,50.0,50.0,-100.00,SW,227,0.0,4.0,100,0.06,,,0.29,0.000000,,2013-09-06 13:52:00,
2013-09-06 07:02:00,50.0,50.0,-100.00,SW,227,0.0,4.0,100,0.06,,,0.29,0.000000,,2013-09-06 14:02:00,
2013-09-06 07:42:00,49.0,49.0,-100.00,SSE,162,0.0,0.0,100,0.11,,,0.40,4.000000,,2013-09-06 14:42:00,
2013-09-06 07:52:00,49.0,49.0,-100.00,SSE,162,0.0,0.0,100,0.11,,,0.40,4.000000,,2013-09-06 14:52:00,
2013-09-06 08:01:00,49.0,49.0,-100.00,SSE,162,0.0,0.0,100,0.11,,,0.40,4.000000,,2013-09-06 15:01:00,
2013-09-06 08:43:00,50.0,50.0,-100.00,NW,311,0.0,3.0,100,0.11,,,0.51,78.000000,,2013-09-06 15:43:00,
2013-09-06 08:53:00,50.0,50.0,-100.00,NW,311,0.0,3.0,100,0.11,,,0.51,78.000000,,2013-09-06 15:53:00,
2013-09-06 09:04:00,50.0,50.0,-100.00,NW,311,0.0,3.0,100,0.11,,,0.51,78.000000,,2013-09-06 16:04:00,
2013-09-06 09:43:00,52.0,52.0,-100.00,North,359,4.0,8.0,100,0.02,,,0.53,124.000000,,2013-09-06 16:43:00,
2013-09-06 09:53:00,52.0,52.0,-100.00,North,359,4.0,8.0,100,0.02,,,0.53,124.000000,,2013-09-06 16:53:00,
2013-09-06 10:03:00,52.0,52.0,-100.00,North,359,4.0,8.0,100,0.02,,,0.53,124.000000,,2013-09-06 17:03:00,
2013-09-06 10:43:00,54.0,54.0,-100.00,ENE,62,4.0,15.0,99,0.00,,,0.53,303.000000,,2013-09-06 17:43:00,
2013-09-06 10:53:00,54.0,54.0,-100.00,ENE,62,4.0,15.0,99,0.00,,,0.53,303.000000,,2013-09-06 17:53:00,
2013-09-06 11:01:00,54.0,54.0,-100.00,ENE,62,4.0,15.0,99,0.00,,,0.53,303.000000,,2013-09-06 18:01:00,
2013-09-06 11:42:00,57.0,53.0,-100.00,WSW,253,0.0,19.0,86,0.00,,,0.53,535.000000,,2013-09-06 18:42:00,
2013-09-06 11:52:00,57.0,53.0,-100.00,WSW,253,0.0,19.0,86,0.00,,,0.53,535.000000,,2013-09-06 18:52:00,
2013-09-06 12:02:00,57.0,53.0,-100.00,WSW,253,0.0,19.0,86,0.00,,,0.53,535.000000,,2013-09-06 19:02:00,
2013-09-06 18:42:00,59.0,51.0,-100.00,NE,44,2.0,10.0,74,0.00,,,0.46,92.000000,,2013-09-07 01:42:00,
2013-09-06 18:53:00,59.0,51.0,-100.00,NE,44,2.0,10.0,74,0.00,,,0.46,92.000000,,2013-09-07 01:53:00,
2013-09-06 19:02:00,59.0,51.0,-100.00,NE,44,2.0,10.0,74,0.00,,,0.46,92.000000,,2013-09-07 02:02:00,
2013-09-06 19:43:00,57.0,51.0,-100.00,SE,140,0.0,8.0,80,0.00,,,0.44,23.000000,,2013-09-07 02:43:00,
2013-09-06 19:52:00,57.0,51.0,-100.00,SE,140,0.0,8.0,80,0.00,,,0.44,23.000000,,2013-09-07 02:52:00,
2013-09-06 20:02:00,57.0,51.0,-100.00,SE,140,0.0,8.0,80,0.00,,,0.44,23.000000,,2013-09-07 03:02:00,
2013-09-06 20:45:00,54.0,52.0,-100.00,East,87,0.0,6.0,93,0.00,,,0.41,0.000000,,2013-09-07 03:45:00,
2013-09-06 20:55:00,54.0,52.0,-100.00,East,87,0.0,6.0,93,0.00,,,0.41,0.000000,,2013-09-07 03:55:00,
2013-09-06 21:03:00,54.0,52.0,-100.00,East,87,0.0,6.0,93,0.00,,,0.41,0.000000,,2013-09-07 04:03:00,
2013-09-06 21:43:00,53.0,53.0,-100.00,East,95,0.0,5.0,100,0.00,,,0.41,0.000000,,2013-09-07 04:43:00,
2013-09-06 21:54:00,53.0,53.0,-100.00,East,95,0.0,5.0,100,0.00,,,0.41,0.000000,,2013-09-07 04:54:00,
2013-09-06 22:03:00,53.0,53.0,-100.00,East,95,0.0,5.0,100,0.00,,,0.41,0.000000,,2013-09-07 05:03:00,
2013-09-06 22:42:00,50.0,50.0,-100.00,NNE,14,0.0,5.0,100,0.00,,,0.41,0.000000,,2013-09-07 05:42:00,
2013-09-06 22:52:00,50.0,50.0,-100.00,NNE,14,0.0,5.0,100,0.00,,,0.41,0.000000,,2013-09-07 05:52:00,
2013-09-06 23:02:00,50.0,50.0,-100.00,NNE,14,0.0,5.0,100,0.00,,,0.41,0.000000,,2013-09-07 06:02:00,
2013-09-06 23:43:00,51.0,51.0,-100.00,NE,53,1.0,7.0,100,0.00,,,0.41,0.000000,,2013-09-07 06:43:00,
2013-09-06 23:52:00,51.0,51.0,-100.00,NE,53,1.0,7.0,100,0.00,,,0.41,0.000000,,2013-09-07 06:52:00,